EW6055 Weather Reports


Display with metric or nautical units.
time (UTC)temp
F
wind
direction
speed
MPH
gust
MPH
rain 1hr
in
rain 24hr
in
rain mn
in
humidity
%
barometer
mb
20260508141003 48 164 1.0 3.0 0.00 0.00 0.00 86 1018.8
20260508140503 48 156 1.0 3.0 0.00 0.00 0.00 86 1018.8
20260508140004 48 157 1.0 3.0 0.00 0.00 0.00 86 1018.6
20260508135524 48 175 1.0 3.0 0.00 0.00 0.00 86 1018.6
20260508135003 48 168 1.0 2.0 0.00 0.00 0.00 85 1018.4
20260508134504 48 169 1.0 3.0 0.00 0.00 0.00 86 1018.3
20260508134003 48 189 1.0 3.0 0.00 0.00 0.00 85 1018.2
20260508133503 48 187 1.0 2.0 0.00 0.00 0.00 85 1018.1
20260508133003 48 173 1.0 2.0 0.00 0.00 0.00 85 1017.9
20260508132503 48 178 1.0 2.0 0.00 0.00 0.00 84 1017.8
20260508132003 48 188 1.0 3.0 0.00 0.00 0.00 84 1017.8
20260508131503 48 188 1.0 3.0 0.00 0.00 0.00 84 1017.6
20260508131024 48 186 1.0 3.0 0.00 0.00 0.00 83 1017.5
20260508130504 48 192 1.0 3.0 0.00 0.00 0.00 83 1017.5
20260508130003 49 185 1.0 3.0 0.00 0.00 0.00 82 1017.3
20260508125503 49 175 0.0 2.0 0.00 0.00 0.00 82 1017.1
20260508125003 49 182 0.0 2.0 0.00 0.00 0.00 81 1017.1
20260508124503 49 190 1.0 2.0 0.00 0.00 0.00 81 1017.1
20260508124003 49 170 1.0 3.0 0.00 0.00 0.00 81 1017.0
20260508123503 49 160 1.0 3.0 0.00 0.00 0.00 81 1016.9
20260508123003 49 169 1.0 2.0 0.00 0.00 0.00 80 1016.9
20260508122503 49 156 1.0 2.0 0.00 0.00 0.00 80 1016.8
20260508122003 49 149 1.0 2.0 0.00 0.00 0.00 80 1016.9
20260508121503 49 160 1.0 2.0 0.00 0.00 0.00 80 1016.8
20260508121004 49 182 1.0 2.0 0.00 0.00 0.00 80 1016.9
20260508120524 49 186 1.0 2.0 0.00 0.00 0.00 80 1016.8
20260508120003 49 192 1.0 2.0 0.00 0.00 0.00 80 1016.7
20260508115503 50 198 1.0 2.0 0.00 0.00 0.00 80 1016.9
20260508114503 50 133 0.0 4.0 0.00 0.00 0.00 79 1016.6
20260508114024 50 141 1.0 4.0 0.00 0.00 0.00 79 1016.5
20260508113503 50 160 0.0 2.0 0.00 0.00 0.00 79 1016.4
20260508113025 50 0 0.0 0.0 0.00 0.00 0.00 79 1016.4
20260508112503 50 165 0.0 2.0 0.00 0.00 0.00 80 1016.4
20260508112024 50 173 0.0 3.0 0.00 0.00 0.00 79 1016.3
20260508111503 50 167 1.0 3.0 0.00 0.00 0.00 80 1016.2
20260508111024 50 144 1.0 3.0 0.00 0.00 0.00 79 1016.2
20260508110503 50 143 1.0 2.0 0.00 0.00 0.00 79 1016.1
20260508110003 50 150 1.0 2.0 0.00 0.00 0.00 79 1016.0
20260508105504 51 144 1.0 6.0 0.00 0.00 0.00 80 1016.0
20260508105003 51 130 1.0 6.0 0.00 0.00 0.00 79 1016.0
20260508104503 51 130 1.0 3.0 0.00 0.00 0.00 79 1015.9
20260508104024 51 152 1.0 2.0 0.00 0.00 0.00 79 1015.9
20260508103504 51 159 1.0 2.0 0.00 0.00 0.00 79 1015.8
20260508103003 51 160 1.0 2.0 0.00 0.00 0.00 78 1015.8
20260508102503 51 176 1.0 2.0 0.00 0.00 0.00 78 1015.8
20260508102003 51 177 0.0 2.0 0.00 0.00 0.00 78 1015.7
20260508101503 51 173 0.0 2.0 0.00 0.00 0.00 78 1015.7
20260508101003 51 187 0.0 1.0 0.00 0.00 0.00 79 1015.7
20260508100503 51 0 0.0 0.0 0.00 0.00 0.00 79 1015.6
20260508100004 52 128 0.0 2.0 0.00 0.00 0.00 80 1015.6
20260508095503 52 128 1.0 2.0 0.00 0.00 0.00 80 1015.6
20260508095024 52 127 1.0 2.0 0.00 0.00 0.00 80 1015.5
20260508094503 52 131 0.0 1.0 0.00 0.00 0.00 80 1015.4
20260508094003 52 147 0.0 1.0 0.00 0.00 0.00 80 1015.4
20260508093503 52 0 0.0 0.0 0.00 0.00 0.00 79 1015.4
20260508093024 52 0 0.0 0.0 0.00 0.00 0.00 79 1015.4
20260508092503 52 0 0.0 0.0 0.00 0.00 0.00 79 1015.4
20260508092003 52 0 0.0 0.0 0.00 0.00 0.00 79 1015.4
20260508091503 52 0 0.0 0.0 0.00 0.00 0.00 78 1015.3
20260508091003 52 0 0.0 0.0 0.00 0.00 0.00 78 1015.2
20260508090504 53 197 0.0 1.0 0.00 0.00 0.00 78 1015.2
20260508090004 53 196 0.0 1.0 0.00 0.00 0.00 77 1015.2
20260508085503 53 196 0.0 1.0 0.00 0.00 0.00 77 1015.2
20260508085003 53 191 0.0 2.0 0.00 0.00 0.00 77 1015.1
20260508084504 53 192 0.0 2.0 0.00 0.00 0.00 77 1015.1
20260508084003 53 190 0.0 2.0 0.00 0.00 0.00 76 1015.1
20260508083504 53 183 0.0 3.0 0.00 0.00 0.00 76 1015.1
20260508083003 54 181 0.0 3.0 0.00 0.00 0.00 76 1015.0
20260508082503 54 0 0.0 0.0 0.00 0.00 0.00 76 1015.0
20260508082004 54 0 0.0 0.0 0.00 0.00 0.00 75 1015.0
20260508081503 54 0 0.0 0.0 0.00 0.00 0.00 75 1014.9
20260508081003 54 0 0.0 0.0 0.00 0.00 0.00 75 1014.9
20260508080503 54 0 0.0 0.0 0.00 0.00 0.00 74 1014.9
20260508080004 54 181 0.0 1.0 0.00 0.00 0.00 74 1014.9
20260508075503 55 177 0.0 1.0 0.00 0.00 0.00 74 1014.9
20260508075003 55 175 0.0 2.0 0.00 0.00 0.00 73 1014.9
20260508074503 55 175 0.0 2.0 0.00 0.00 0.00 73 1014.9
20260508074024 55 0 0.0 0.0 0.00 0.00 0.00 72 1014.8
20260508073503 55 0 0.0 0.0 0.00 0.00 0.00 71 1014.8
20260508073003 56 0 0.0 0.0 0.00 0.00 0.00 70 1014.8
20260508072503 56 0 0.0 0.0 0.00 0.00 0.00 69 1014.7
20260508072003 56 0 0.0 0.0 0.00 0.00 0.00 69 1014.7
20260508071503 56 0 0.0 0.0 0.00 0.00 0.00 68 1014.7
20260508071003 56 0 0.0 0.0 0.00 0.00 0.00 68 1014.7
20260508070503 56 0 0.0 0.0 0.00 0.00 0.00 68 1014.8
20260508070025 56 0 0.0 0.0 0.00 0.00 0.00 67 1014.8
20260508065524 57 0 0.0 0.0 0.00 0.00 0.00 67 1014.8
20260508065024 57 0 0.0 0.0 0.00 0.00 0.00 66 1014.8
20260508064524 57 0 0.0 0.0 0.00 0.00 0.00 66 1014.8
20260508064004 57 0 0.0 0.0 0.00 0.00 0.00 65 1014.8
20260508063525 57 0 0.0 0.0 0.00 0.00 0.00 66 1014.8
20260508063003 57 0 0.0 0.0 0.00 0.00 0.00 66 1014.8
20260508062504 58 0 0.0 0.0 0.00 0.00 0.00 66 1014.8
20260508062003 58 0 0.0 0.0 0.00 0.00 0.00 66 1014.8
20260508061503 58 0 0.0 0.0 0.00 0.00 0.00 65 1014.7
20260508061003 58 0 0.0 0.0 0.00 0.00 0.00 64 1014.8
20260508060503 58 0 0.0 0.0 0.00 0.00 0.00 64 1014.8
20260508060004 59 0 0.0 0.0 0.00 0.00 0.00 64 1014.7
20260508055503 59 0 0.0 0.0 0.00 0.00 0.00 64 1014.7
20260508055003 59 0 0.0 0.0 0.00 0.00 0.00 61 1014.6
20260508054503 59 0 0.0 0.0 0.00 0.00 0.00 61 1014.6
20260508054003 59 0 0.0 0.0 0.00 0.00 0.00 61 1014.6
20260508053525 60 0 0.0 0.0 0.00 0.00 0.00 61 1014.6
20260508053024 60 0 0.0 0.0 0.00 0.00 0.00 60 1014.6
20260508052503 60 0 0.0 0.0 0.00 0.00 0.00 60 1014.6
20260508052024 60 0 0.0 0.0 0.00 0.00 0.00 60 1014.6
20260508051524 60 0 0.0 0.0 0.00 0.00 0.00 60 1014.5
20260508051024 60 0 0.0 0.0 0.00 0.00 0.00 60 1014.5
20260508050524 60 0 0.0 0.0 0.00 0.00 0.00 59 1014.6
20260508050003 61 0 0.0 0.0 0.00 0.00 0.00 58 1014.6
20260508045503 61 0 0.0 0.0 0.00 0.00 0.00 58 1014.7
20260508045004 61 0 0.0 0.0 0.00 0.00 0.00 57 1014.6
20260508044504 61 0 0.0 0.0 0.00 0.00 0.00 57 1014.6
20260508044024 61 0 0.0 0.0 0.00 0.00 0.00 57 1014.6
20260508043504 61 0 0.0 0.0 0.00 0.00 0.00 56 1014.5
20260508043003 62 0 0.0 0.0 0.00 0.00 0.00 55 1014.4
20260508042503 62 0 0.0 0.0 0.00 0.00 0.00 54 1014.4
20260508042003 62 0 0.0 0.0 0.00 0.00 0.00 53 1014.4
20260508041504 62 0 0.0 0.0 0.00 0.00 0.00 53 1014.3
20260508041003 63 0 0.0 0.0 0.00 0.00 0.00 52 1014.3
20260508040524 64 0 0.0 0.0 0.00 0.00 0.00 52 1014.3
20260508040024 64 0 0.0 0.0 0.00 0.00 0.00 50 1014.3
20260508035504 65 0 0.0 0.0 0.00 0.00 0.00 50 1014.3
20260508035003 65 0 0.0 0.0 0.00 0.00 0.00 49 1014.2
20260508034524 65 0 0.0 0.0 0.00 0.00 0.00 48 1014.2
20260508034003 66 0 0.0 0.0 0.00 0.00 0.00 48 1014.1
20260508033503 67 0 0.0 0.0 0.00 0.00 0.00 47 1014.0
20260508033003 68 0 0.0 0.0 0.00 0.00 0.00 44 1013.9
20260508032504 69 0 0.0 0.0 0.00 0.00 0.00 43 1013.9
20260508032003 69 0 0.0 0.0 0.00 0.00 0.00 42 1013.9
20260508031503 70 0 0.0 0.0 0.00 0.00 0.00 41 1013.8
20260508031003 70 0 0.0 0.0 0.00 0.00 0.00 41 1013.8
20260508030503 70 0 0.0 0.0 0.00 0.00 0.00 41 1013.7
20260508030024 70 0 0.0 0.0 0.00 0.00 0.00 41 1013.8
20260508025524 70 0 0.0 0.0 0.00 0.00 0.00 40 1013.8
20260508025003 71 0 0.0 0.0 0.00 0.00 0.00 39 1013.8
20260508024503 71 0 0.0 0.0 0.00 0.00 0.00 39 1013.8
20260508024024 71 0 0.0 0.0 0.00 0.00 0.00 37 1013.8
20260508023503 72 0 0.0 0.0 0.00 0.00 0.00 36 1013.8
20260508023002 72 0 0.0 0.0 0.00 0.00 0.00 36 1013.8
20260508022502 72 0 0.0 0.0 0.00 0.00 0.00 35 1013.8
20260508022002 72 0 0.0 0.0 0.00 0.00 0.00 35 1013.8
20260508021502 73 0 0.0 0.0 0.00 0.00 0.00 36 1013.8
20260508021023 73 0 0.0 0.0 0.00 0.00 0.00 36 1013.8
20260508020523 73 0 0.0 0.0 0.00 0.00 0.00 35 1013.9
20260508020002 73 0 0.0 0.0 0.00 0.00 0.00 34 1014.0
20260508015523 73 0 0.0 0.0 0.00 0.00 0.00 34 1014.0
20260508015023 73 0 0.0 0.0 0.00 0.00 0.00 33 1014.1
20260508014502 73 227 0.0 2.0 0.00 0.00 0.00 33 1014.1
20260508014002 73 225 0.0 2.0 0.00 0.00 0.00 33 1014.2
20260508013502 73 220 0.0 1.0 0.00 0.00 0.00 32 1014.2
20260508013002 73 0 0.0 0.0 0.00 0.00 0.00 31 1014.2
20260508012502 73 211 0.0 2.0 0.00 0.00 0.00 31 1014.2
20260508012002 73 204 1.0 2.0 0.00 0.00 0.00 31 1014.2
20260508011502 74 177 0.0 2.0 0.00 0.00 0.00 30 1014.2
20260508011002 74 175 0.0 1.0 0.00 0.00 0.00 30 1014.3
20260508010502 74 175 0.0 1.0 0.00 0.00 0.00 30 1014.3
20260508010002 74 152 0.0 2.0 0.00 0.00 0.00 29 1014.4
20260508005502 74 210 1.0 4.0 0.00 0.00 0.00 30 1014.5
20260508005023 74 255 1.0 4.0 0.00 0.00 0.00 30 1014.6
20260508004502 74 306 0.0 3.0 0.00 0.00 0.00 31 1014.5
20260508004023 74 289 0.0 2.0 0.00 0.00 0.00 30 1014.6
20260508003523 74 261 0.0 4.0 0.00 0.00 0.00 31 1014.7
20260508003002 74 261 1.0 6.0 0.00 0.00 0.00 30 1014.7
20260508002523 74 257 1.0 6.0 0.00 0.00 0.00 31 1014.7
20260508002023 74 235 0.0 3.0 0.00 0.00 0.00 31 1014.7
20260508001502 73 200 0.0 2.0 0.00 0.00 0.00 30 1014.8
20260508001002 73 179 1.0 3.0 0.00 0.00 0.00 30 1014.8
20260508000502 73 205 0.0 3.0 0.00 0.00 0.00 29 1014.9
20260508000002 73 247 1.0 4.0 0.00 0.00 0.00 31 1014.9
20260507235523 73 227 1.0 4.0 0.00 0.00 0.00 31 1015.0
20260507235002 72 208 1.0 2.0 0.00 0.00 0.00 31 1015.0
20260507234523 72 280 1.0 4.0 0.00 0.00 0.00 30 1015.0
20260507234002 73 283 1.0 4.0 0.00 0.00 0.00 32 1015.1
20260507233502 73 274 1.0 6.0 0.00 0.00 0.00 33 1015.1
20260507233002 73 278 1.0 6.0 0.00 0.00 0.00 32 1015.2
20260507232502 74 268 1.0 6.0 0.00 0.00 0.00 33 1015.3
20260507232002 74 254 1.0 4.0 0.00 0.00 0.00 33 1015.3
20260507231502 73 269 0.0 4.0 0.00 0.00 0.00 34 1015.3
20260507231002 72 276 1.0 4.0 0.00 0.00 0.00 34 1015.4
20260507230502 73 248 1.0 4.0 0.00 0.00 0.00 35 1015.5
20260507230023 73 225 1.0 4.0 0.00 0.00 0.00 36 1015.5
20260507225502 72 248 1.0 4.0 0.00 0.00 0.00 36 1015.6
20260507225002 72 247 1.0 7.0 0.00 0.00 0.00 37 1015.7
20260507224502 71 237 1.0 7.0 0.00 0.00 0.00 38 1015.7
20260507224002 71 245 1.0 6.0 0.00 0.00 0.00 40 1015.8
20260507223502 71 244 1.0 6.0 0.00 0.00 0.00 41 1015.9
20260507223002 71 228 1.0 4.0 0.00 0.00 0.00 42 1015.9
20260507222502 71 245 1.0 4.0 0.00 0.00 0.00 42 1015.9
20260507222002 72 264 1.0 3.0 0.00 0.00 0.00 41 1016.0
20260507221502 72 266 1.0 3.0 0.00 0.00 0.00 40 1016.0
20260507221002 73 273 1.0 4.0 0.00 0.00 0.00 40 1016.0
20260507220502 73 264 1.0 4.0 0.00 0.00 0.00 39 1016.1
20260507220002 73 250 1.0 4.0 0.00 0.00 0.00 41 1016.1
20260507215502 73 50 0.0 3.0 0.00 0.00 0.00 39 1016.2
20260507215002 73 49 0.0 3.0 0.00 0.00 0.00 36 1016.2
20260507214502 73 338 0.0 4.0 0.00 0.00 0.00 38 1016.2
20260507214002 73 299 1.0 4.0 0.00 0.00 0.00 38 1016.3
20260507213502 73 286 1.0 3.0 0.00 0.00 0.00 39 1016.3
20260507213002 73 313 1.0 2.0 0.00 0.00 0.00 40 1016.4
20260507212502 72 275 1.0 3.0 0.00 0.00 0.00 40 1016.4
20260507212002 72 261 1.0 3.0 0.00 0.00 0.00 40 1016.5
20260507211502 72 170 1.0 2.0 0.00 0.00 0.00 42 1016.5
20260507211002 71 184 1.0 3.0 0.00 0.00 0.00 41 1016.5
20260507210502 71 212 1.0 3.0 0.00 0.00 0.00 43 1016.7
20260507210002 72 205 1.0 3.0 0.00 0.00 0.00 43 1016.7
20260507205502 72 264 1.0 3.0 0.00 0.00 0.00 45 1016.8
20260507205002 71 285 0.0 3.0 0.00 0.00 0.00 45 1016.9
20260507204502 70 184 1.0 2.0 0.00 0.00 0.00 47 1016.9
20260507204002 70 209 1.0 2.0 0.00 0.00 0.00 45 1016.9
20260507203502 70 237 1.0 4.0 0.00 0.00 0.00 45 1017.1
20260507203002 71 273 1.0 4.0 0.00 0.00 0.00 46 1017.1
20260507202502 70 274 1.0 4.0 0.00 0.00 0.00 47 1017.2
20260507202023 70 266 1.0 6.0 0.00 0.00 0.00 47 1017.2
20260507201502 69 297 1.0 7.0 0.00 0.00 0.00 49 1017.3
20260507201002 69 328 1.0 7.0 0.00 0.00 0.00 48 1017.3
20260507200502 69 334 1.0 4.0 0.00 0.00 0.00 49 1017.3
20260507200002 69 317 1.0 4.0 0.00 0.00 0.00 50 1017.4
20260507195502 69 302 1.0 4.0 0.00 0.00 0.00 50 1017.4
20260507195002 68 295 1.0 4.0 0.00 0.00 0.00 50 1017.5
20260507194502 68 278 1.0 4.0 0.00 0.00 0.00 52 1017.6
20260507194002 68 298 1.0 4.0 0.00 0.00 0.00 51 1017.7
20260507193502 67 307 1.0 4.0 0.00 0.00 0.00 51 1017.6
20260507193002 68 286 1.0 4.0 0.00 0.00 0.00 51 1017.8
20260507192502 68 15 1.0 4.0 0.00 0.00 0.00 52 1017.8
20260507192002 67 5 1.0 4.0 0.00 0.00 0.00 52 1017.9
20260507191523 67 298 1.0 5.0 0.00 0.00 0.00 51 1018.0
20260507191002 66 326 1.0 5.0 0.00 0.00 0.00 53 1018.0
20260507190523 66 34 1.0 4.0 0.00 0.00 0.00 54 1018.1
20260507190003 66 19 1.0 4.0 0.00 0.00 0.00 53 1018.1
20260507185502 66 22 1.0 6.0 0.00 0.00 0.00 53 1018.2
20260507185002 65 44 1.0 6.0 0.00 0.00 0.00 55 1018.2
20260507184502 65 21 1.0 4.0 0.00 0.00 0.00 54 1018.3
20260507184002 65 122 0.0 2.0 0.00 0.00 0.00 54 1018.3
20260507183502 64 84 1.0 3.0 0.00 0.00 0.00 56 1018.3
20260507183002 63 71 1.0 4.0 0.00 0.00 0.00 56 1018.4
20260507182502 63 86 1.0 4.0 0.00 0.00 0.00 57 1018.4
20260507182002 63 63 1.0 3.0 0.00 0.00 0.00 57 1018.4
20260507181502 63 356 1.0 3.0 0.00 0.00 0.00 57 1018.5
20260507181002 63 342 1.0 5.0 0.00 0.00 0.00 58 1018.6
20260507180502 62 325 1.0 5.0 0.00 0.00 0.00 59 1018.6
20260507180002 62 331 1.0 4.0 0.00 0.00 0.00 59 1018.7
20260507175502 62 317 1.0 3.0 0.00 0.00 0.00 59 1018.7
20260507175002 62 304 1.0 3.0 0.00 0.00 0.00 60 1018.7
20260507174523 61 318 1.0 3.0 0.00 0.00 0.00 61 1018.7
20260507174002 61 315 1.0 4.0 0.00 0.00 0.00 60 1018.8
20260507173502 61 335 1.0 4.0 0.00 0.00 0.00 61 1018.8
20260507173023 60 327 1.0 4.0 0.00 0.00 0.00 62 1018.8
20260507172502 60 298 1.0 4.0 0.00 0.00 0.00 62 1018.8
20260507172002 60 314 1.0 5.0 0.00 0.00 0.00 63 1018.9
20260507171523 59 343 1.0 5.0 0.00 0.00 0.00 62 1018.8
20260507171023 59 339 1.0 8.0 0.00 0.00 0.00 64 1018.8
20260507170523 59 346 1.0 8.0 0.00 0.00 0.00 64 1018.9
20260507170002 58 346 1.0 3.0 0.00 0.00 0.00 65 1018.9
20260507165502 58 318 1.0 4.0 0.00 0.00 0.00 65 1018.9
20260507165002 58 293 1.0 8.0 0.00 0.00 0.00 66 1018.9
20260507164523 57 292 1.0 8.0 0.00 0.00 0.00 67 1018.9
20260507164002 57 306 1.0 5.0 0.00 0.00 0.00 67 1018.9
20260507163502 56 346 0.0 4.0 0.00 0.00 0.00 68 1018.9
20260507163002 56 320 1.0 5.0 0.00 0.00 0.00 68 1018.9
20260507162502 56 318 2.0 5.0 0.00 0.00 0.00 68 1018.9
20260507162002 56 330 1.0 4.0 0.00 0.00 0.00 69 1018.9
20260507161502 55 350 1.0 5.0 0.00 0.00 0.00 70 1018.9
20260507161002 55 352 1.0 5.0 0.00 0.00 0.00 70 1018.9
20260507160523 54 346 1.0 5.0 0.00 0.00 0.00 71 1019.0
20260507160002 54 347 1.0 5.0 0.00 0.00 0.00 71 1018.9
20260507155502 54 346 1.0 5.0 0.00 0.00 0.00 72 1018.8
20260507155002 54 340 1.0 5.0 0.00 0.00 0.00 72 1018.9
20260507154523 54 330 1.0 4.0 0.00 0.00 0.00 71 1018.8
20260507154002 53 330 2.0 5.0 0.00 0.00 0.00 73 1018.9
20260507153523 53 331 2.0 6.0 0.00 0.00 0.00 72 1018.9
20260507153002 53 332 1.0 6.0 0.00 0.00 0.00 73 1018.9
20260507152502 53 336 2.0 6.0 0.00 0.00 0.00 73 1019.0
20260507152002 53 336 1.0 7.0 0.00 0.00 0.00 73 1019.0
20260507151523 53 333 1.0 7.0 0.00 0.00 0.00 73 1018.9
20260507151002 53 337 2.0 6.0 0.00 0.00 0.00 73 1018.9
20260507150502 53 340 1.0 5.0 0.00 0.00 0.00 74 1018.9
20260507150002 53 337 1.0 6.0 0.00 0.00 0.00 74 1018.9
20260507145502 53 335 0.0 6.0 0.00 0.00 0.00 74 1018.9
20260507145002 52 352 0.0 2.0 0.00 0.00 0.00 74 1018.9
20260507144502 52 15 0.0 3.0 0.00 0.00 0.00 75 1018.9
20260507144002 52 25 0.0 3.0 0.00 0.00 0.00 75 1018.9
20260507143502 52 51 0.0 3.0 0.00 0.00 0.00 75 1018.8
20260507143023 52 5 0.0 3.0 0.00 0.00 0.00 75 1018.8
20260507142502 52 8 1.0 3.0 0.00 0.00 0.00 75 1018.9
20260507142002 52 14 1.0 3.0 0.00 0.00 0.00 76 1018.7
20260507141502 52 10 1.0 3.0 0.00 0.00 0.00 76 1018.7